www.pogodaiklimat.ru

Погода и климат >> Архив погоды >> Бельгия >> Elsenborn


ПОГОДА в Elsenborn

  • Прогноз погоды в Elsenborn
  • Монитор погоды в Elsenborn
  • Климат города

АРХИВ ПОГОДЫ в Elsenborn

Время (UTC), дата Ветер
(напр.,м/с)
 
Видим.   Явления Облачность Т
(С)
Тd
(С)
f
(%)
Тe
(С)
Тes
(С)
Комфортность P
(гПа)
Po
(гПа)
Тmin
(С)
Tmax
(С)
R
(мм)
R24
(мм)
S
(см)
01 16.06 штиль 0 19 км н/о +9.3 +9.1 99 +8 +8 1018.0 951.4
02 16.06 нст 1
{1}
15 км н/о +8.3 +7.9 97 +7 +7 1017.8 951.1
03 16.06
{1}
15 км н/о +8.1 +7.8 98 1017.7 951.0
04 16.06 нст 1
{1}
19 км н/о +8.3 +8.1 99 +7 +7 1017.7 950.9
05 16.06 нст 1
{1}
20 км н/о +9.6 +9.3 98 +9 +9 1017.5 951.1
06 16.06 нст 1
{1}
20 км н/о +11.3 +10.4 94 +11 +11 1017.2 951.2 +8.0
07 16.06 нст 1
{1}
20 км н/о +16.0 +12.4 79 +17 +17 1016.0 951.1
08 16.06 нст 1
{3}
20 км н/о +17.6 +10.4 63 +19 +19 1015.7 951.1
09 16.06 нст 1
{4}
20 км н/о +18.5 +11.0 62 +20 +20 1015.2 951.0
10 16.06 нст 1
{4}
20 км н/о +18.4 +10.7 61 +20 +20 1015.3 951.0
11 16.06 нст 1
{5}
20 км н/о +18.1 +10.5 61 +19 +19 1015.2 950.9
12 16.06 нст 1
{5}
20 км н/о +17.4 +11.7 69 +18 +18 1015.2 950.8
13 16.06 нст 1
{3}
20 км н/о +19.2 +12.1 63 +21 +21 комфорт 1014.3 950.3
14 16.06 нст 1
{3}
19 км н/о +18.1 +12.5 70 +19 +19 1014.5 950.2
15 16.06 нст 1
{5}
20 км {дождь} н/о +18.0 +13.6 75 +19 +19 1014.6 950.3
16 16.06 ЮЗ 2
{4}
20 км н/о +18.8 +13.1 69 +20 +20 1013.8 949.8
17 16.06 нст 1
{6}
20 км {дождь} н/о +15.9 +15.5 97 +17 +17 1014.8 950.1
18 16.06 З 2
{6}
20 км {дождь} н/о +16.0 +13.8 87 +16 +16 1015.2 950.5 +20.8 5
19 16.06 З 2
{4}
20 км н/о +14.5 +12.3 87 +14 +14 1015.7 950.6
20 16.06 нст 1
{3}
19 км н/о +12.8 +11.5 92 +13 +13 1016.7 951.0
21 16.06
{4}
16 км н/о +11.6 +10.6 94 1017.6 951.6
22 16.06
{2}
20 км н/о +11.0 +9.9 93 1017.7 951.6
23 16.06
{1}
7000 м н/о +10.0 +9.7 98 1017.7 951.5
00 17.06
{4}
18 км н/о +9.7 +9.0 95 1018.2 951.7
01 17.06
{1}
15 км н/о +9.0 +8.3 95 1018.3 951.7
02 17.06
{1}
13 км н/о +7.7 +7.4 98 1018.7 951.8
03 17.06
{1}
13 км н/о +7.5 +7.0 97 1018.8 951.8
04 17.06 штиль 0
{1}
12 км н/о +7.9 +7.8 99 +7 +7 1018.8 952.0
05 17.06 нст 1
{1}
9000 м н/о +9.5 +9.2 98 +9 +9 1018.7 952.2
06 17.06 нст 1
{2}
12 км н/о +11.5 +10.2 92 +11 +11 1018.2 952.2 +7.4
07 17.06 З 2
{4}
20 км н/о +12.3 +9.7 84 +11 +11 1018.2 952.4
08 17.06 З 2
{6}
18 км н/о +12.6 +10.1 85 +12 +12 1018.7 952.9
09 17.06 З 2
{6}
20 км н/о +14.0 +10.3 78 +14 +14 1018.3 952.9
10 17.06 З 3
{6}
16 км н/о +14.8 +10.2 74 +14 +14 1018.1 952.8
11 17.06 З 3
{8}
20 км н/о +14.7 +9.6 71 +14 +14 1018.3 953.0
12 17.06 З 2
{8}
20 км н/о +14.8 +9.7 71 +15 +15 1018.3 953.1
13 17.06 З 3
{8}
20 км н/о +14.8 +9.4 70 +14 +14 1018.7 953.3
14 17.06 З 3
{8}
20 км н/о +14.1 +9.2 72 +13 +13 1019.2 953.6
15 17.06 З 3
{8}
20 км н/о +13.8 +8.8 72 +13 +13 1019.6 953.9
16 17.06 З 3
{6}
20 км н/о +13.8 +7.5 66 +13 +13 1019.6 954.0
17 17.06 З 3
{6}
20 км н/о +13.6 +7.3 66 +13 +13 1020.0 954.3
18 17.06 нст 2
{8}
20 км н/о +13.3 +8.0 70 +13 +13 1020.3 954.5 +15.7
19 17.06
{5}
20 км н/о +12.3 +8.4 77 1020.3 954.4
20 17.06
{3}
20 км н/о +12.0 +8.9 81 1020.7 954.7
21 17.06 нст 1
{5}
20 км н/о +11.5 +9.1 85 +11 +11 1021.3 955.1
22 17.06
{3}
20 км н/о +11.6 +9.3 86 1021.5 955.2
23 17.06 нст 1
{2}
20 км н/о +10.1 +9.1 94 +10 +10 1021.7 955.2
00 18.06
{5}
20 км н/о +10.8 +9.3 90 1021.7 955.3
01 18.06 нст 1
{2}
20 км н/о +10.6 +9.3 92 +10 +10 1021.6 955.1
02 18.06 штиль 0
{1}
20 км н/о +10.8 +9.6 92 +10 +10 1021.5 955.0
03 18.06
{2}
20 км н/о +11.3 +9.4 88 1021.1 954.8
04 18.06
{2}
20 км н/о +11.3 +9.5 89 1021.5 955.2
05 18.06 нст 1
{2}
20 км н/о +11.6 +9.7 88 +11 +11 1021.6 955.3
06 18.06 нст 1
{4}
19 км н/о +11.6 +10.3 92 +11 +11 1021.7 955.5 +10.1
07 18.06 нст 1
{4}
20 км н/о +13.1 +10.6 85 +13 +13 1021.6 955.7
08 18.06 ЮЗ 2
{5}
20 км н/о +14.6 +10.7 77 +14 +14 1021.3 955.8
11 18.06 ЮЗ 2
{6}
20 км н/о +17.0 +11.5 70 +17 +17 1021.1 956.1
12 18.06 ЮЗ 2
{8}
20 км н/о +16.3 +11.8 75 +16 +16 1021.6 956.4
14 18.06 З 2
{6}
20 км н/о +16.7 +13.0 79 +17 +17 1021.7 956.7
13 18.06 З 2
{6}
20 км н/о +17.1 +12.3 73 +17 +17 1021.2 956.4
15 18.06 ЮЗ 2
{6}
20 км н/о +17.7 +13.3 75 +18 +18 1021.1 956.3
16 18.06 З 2
{6}
20 км н/о +17.9 +13.1 73 +18 +18 1020.8 956.2
17 18.06 ЮЗ 2
{6}
20 км н/о +17.8 +12.9 73 +18 +18 1020.7 956.0
18 18.06 ЮЗ 2
{7}
20 км н/о +18.5 +13.3 72 +20 +20 1020.6 956.0 +18.6
20 18.06 нст 1
{4}
20 км н/о +16.0 +13.4 85 +17 +17 1021.6 956.4
19 18.06 нст 1
{5}
20 км н/о +17.1 +13.2 78 +18 +18 1021.2 956.3
21 18.06
{5}
20 км н/о +15.6 +13.4 87 1022.2 956.9
22 18.06
{5}
20 км н/о +14.8 +13.0 89 1022.7 957.1
23 18.06 нст 1
{5}
20 км н/о +13.9 +12.4 91 +14 +14 1022.8 957.1
00 19.06
{5}
19 км н/о +12.8 +11.6 92 1023.3 957.3
02 19.06
{3}
13 км н/о +12.0 +11.5 97 1023.6 957.3
01 19.06
{4}
14 км н/о +12.6 +11.8 95 1023.3 957.2
03 19.06
{4}
18 км н/о +12.3 +11.6 95 1023.5 957.3
04 19.06 нст 1
{3}
16 км н/о +12.5 +11.9 96 +12 +12 1024.0 957.9
05 19.06 нст 1
{4}
5000 м н/о +12.6 +12.4 99 +12 +12 1024.5 958.3
06 19.06 нст 1
{4}
4200 м н/о +12.8 +12.7 99 +13 +13 1024.5 958.5 +11.8
09 19.06
{4}
16 км н/о +14.9 +13.7 93 1024.7 959.1
11 19.06 ЮЗ 2
{4}
7000 м слаб. морось {дождь} н/о +15.0 +14.2 95 +15 +15 1025.2 959.5
10 19.06 З 2
{5}
4400 м дымка {дождь, морось} н/о +15.3 +14.5 95 +15 +15 1024.9 959.4
12 19.06
{5}
19 км {дождь, морось} н/о +16.1 +14.3 89 1025.0 959.6 0.2
13 19.06
{5}
2600 м дымка н/о +15.8 +14.7 93 1025.2 959.8
14 19.06
{4}
20 км {дождь, морось} н/о +16.6 +14.9 90 1025.0 959.8
15 19.06 З 2
{5}
20 км {дождь, морось} н/о +16.8 +14.4 86 +17 +17 1025.0 959.8
17 19.06
{3}
20 км н/о +17.1 +14.3 84 1024.5 959.4
16 19.06
{3}
20 км н/о +17.2 +14.2 83 1024.5 959.5
18 19.06
{5}
20 км {дождь, морось} н/о +17.0 +14.4 85 1024.2 959.2 +17.5 0.2
19 19.06
{2}
20 км н/о +16.6 +14.7 89 1024.2 959.1
20 19.06
{1}
20 км н/о +16.1 +14.8 92 1024.5 959.2
21 19.06
{2}
20 км н/о +15.6 +14.7 94 1024.9 959.4
23 19.06
{2}
20 км н/о +15.1 +14.7 97 1024.7 959.3
22 19.06
{1}
20 км н/о +15.3 +14.7 96 1024.9 959.3
00 20.06
{2}
14 км н/о +15.1 +14.6 97 1024.5 959.0
01 20.06
{1}
20 км н/о +15.1 +14.5 96 1024.2 958.7
02 20.06
{1}
19 км н/о +14.8 +14.4 97 1024.0 958.4
03 20.06 нст 1
{1}
17 км н/о +14.6 +14.3 98 +15 +15 1023.7 958.1
05 20.06 нст 1
{1}
20 км н/о +15.3 +14.2 93 +16 +16 1023.1 957.6
04 20.06 нст 1
{1}
11 км н/о +14.1 +13.9 99 +14 +14 1023.3 957.7
06 20.06 нст 1
{2}
20 км н/о +16.8 +13.9 83 +18 +18 1022.7 957.7 +14.0
07 20.06 нст 1
{4}
20 км н/о +17.8 +13.6 76 +19 +19 1022.5 957.6
08 20.06 нст 1
{4}
20 км н/о +19.1 +14.3 74 +21 +21 комфорт 1022.2 957.6
09 20.06 нст 1
{5}
20 км н/о +20.2 +14.6 70 +24 +24 комфорт 1021.7 957.5
11 20.06 нст 1
{5}
20 км н/о +22.4 +13.2 56 +25 +25 комфорт 1020.7 957.0
10 20.06 З 2
{4}
20 км н/о +20.9 +14.4 66 +24 +24 комфорт 1021.3 957.3
12 20.06 нст 1
{5}
20 км н/о +23.6 +13.2 52 +26 +26 жарко 1020.1 956.5
13 20.06 нст 1
{5}
20 км н/о +24.2 +12.8 49 +26 +26 жарко 1019.5 956.1
14 20.06 З 2
{7}
20 км н/о +24.8 +13.0 48 +27 +27 жарко 1018.8 955.7
15 20.06 нст 1
{7}
19 км н/о +24.7 +13.1 48 +27 +27 жарко 1018.6 955.4
17 20.06 нст 1
{4}
20 км н/о +23.5 +13.3 53 +26 +26 жарко 1018.0 954.6
16 20.06 нст 1
{4}
20 км н/о +24.4 +13.2 50 +27 +27 жарко 1018.2 954.9
18 20.06 З 2
{7}
20 км н/о +23.5 +13.7 54 +26 +26 жарко 1017.6 954.3 +25.3
19 20.06 нст 1
{4}
20 км н/о +21.6 +13.2 59 +24 +24 комфорт 1017.7 954.0
20 20.06 штиль 0
{2}
20 км н/о +17.6 +14.0 79 +18 +18 1018.7 954.1
21 20.06 нст 1
{4}
20 км н/о +16.0 +13.7 86 +17 +17 1019.3 954.3
23 20.06 нст 1
{2}
20 км н/о +14.9 +13.1 89 +15 +15 1019.0 953.7
22 20.06 нст 1
{3}
20 км н/о +16.5 +13.5 82 +17 +17 1019.0 954.1
00 21.06
{4}
17 км н/о +12.6 +11.8 95 1019.2 953.3
01 21.06
{3}
17 км н/о +14.6 +12.9 90 1018.3 953.1
02 21.06
{3}
14 км н/о +13.5 +12.3 92 1018.0 952.5
03 21.06
{3}
13 км н/о +12.6 +11.8 95 1017.3 951.7
05 21.06 нст 1
{4}
11 км н/о +14.1 +13.3 95 +14 +14 1016.7 951.5
04 21.06 нст 1
{2}
9000 м н/о +12.8 +12.3 97 +13 +13 1017.2 951.6
06 21.06 З 2
{6}
8000 м н/о +14.2 +13.4 95 +14 +14 1016.7 951.5 +12.1
07 21.06 З 3
{7}
3900 м морось {дождь} н/о +13.1 +12.9 99 +12 +12 1017.2 951.7
08 21.06 З 5
{9}
5000 м слаб. дождь {морось} н/о +13.2 +12.3 94 +11 +11 1018.1 952.5
11 21.06 З 5
{9}
20 км н/о +12.9 +6.8 66 +11 +11 1020.5 954.5
10 21.06 СЗ 4
{9}
19 км н/о +13.5 +10.0 79 +12 +12 1019.5 953.8
12 21.06 СЗ 4
{9}
20 км {дождь, морось} н/о +14.7 +6.4 57 +14 +14 1020.3 954.9 0.6
13 21.06 СЗ 5
{9}
20 км н/о +14.3 +2.7 46 +13 +13 1020.7 955.1
14 21.06 СЗ 4
{10}
20 км н/о +13.8 +2.9 48 +13 +13 1021.5 955.6
15 21.06 СЗ 4
{10}
20 км н/о +13.5 +3.1 49 +12 +12 1022.1 956.1
17 21.06 СЗ 3
{7}
20 км н/о +10.8 +3.2 59 +9 +9 1024.0 957.4
16 21.06 СЗ 3
{10}
20 км н/о +12.1 +3.3 55 +11 +11 1023.1 956.8
18 21.06 СЗ 3
{10}
20 км н/о +10.5 +2.5 58 +9 +9 1024.5 957.7 +14.7 0.6
19 21.06 СЗ 2
{6}
20 км н/о +9.8 +3.8 66 +8 +8 1024.7 957.8
20 21.06
{6}
20 км н/о +9.2 +5.1 76 1025.4 958.2
21 21.06 СЗ 2
{6}
20 км н/о +8.2 +4.0 75 +6 +6 1026.2 958.7
23 21.06 СЗ 2
{6}
18 км н/о +7.0 +4.8 86 +5 +5 1026.9 959.2
22 21.06
{4}
20 км н/о +7.0 +4.1 82 1026.7 959.0
00 22.06 З 2
{6}
16 км н/о +5.9 +4.5 91 +3 +3 1026.9 959.0
01 22.06
{3}
18 км н/о +5.3 +3.8 90 1026.7 958.6
02 22.06 З 2
{4}
19 км н/о +6.0 +4.3 89 +4 +4 1026.5 958.6
03 22.06 З 3
{7}
20 км н/о +6.4 +4.5 88 +3 +3 1026.4 958.6
05 22.06 З 3
{6}
18 км н/о +6.6 +5.0 90 +3 +3 1026.4 958.6
04 22.06
{5}
20 км н/о +5.7 +4.4 91 1026.5 958.6
06 22.06 З 4
{8}
20 км н/о +7.8 +5.5 85 +4 +4 1026.2 958.8 +5.1
08 22.06 СЗ 4
{11}
20 км н/о +9.9 +4.3 68 +7 +7 1026.2 959.2
09 22.06 СЗ 3
{11}
20 км н/о +10.7 +4.4 65 +9 +9 1026.2 959.4
10 22.06 СЗ 4
{9}
20 км н/о +9.8 +3.9 67 +7 +7 1027.0 960.0
11 22.06 СЗ 3
{9}
20 км н/о +10.7 +5.1 68 +9 +9 1026.7 959.9
12 22.06 СЗ 4
{11}
20 км н/о +10.7 +4.4 65 +8 +8 1026.9 960.0
13 22.06 СЗ 4
{8}
20 км н/о +11.0 +5.0 66 +9 +9 1027.0 960.3
14 22.06 СЗ 2
{8}
20 км н/о +11.5 +5.7 68 +11 +11 1027.0 960.3
15 22.06 СЗ 3
{8}
20 км н/о +10.8 +6.3 74 +9 +9 1027.4 960.5
16 22.06 СЗ 3
{7}
19 км н/о +11.0 +6.1 72 +9 +9 1027.5 960.8
17 22.06 СЗ 3
{6}
20 км н/о +11.0 +6.5 74 +9 +9 1027.5 960.7
18 22.06 СЗ 2
{8}
19 км н/о +10.6 +6.6 76 +9 +9 1027.5 960.6 +12.1
19 22.06 нст 1
{5}
20 км {дождь, морось} н/о +10.0 +6.9 81 +10 +10 1027.9 960.8
20 22.06 нст 1
{5}
19 км н/о +9.3 +6.9 85 +9 +9 1028.2 961.0
21 22.06 нст 2
{6}
20 км {дождь, морось} н/о +8.4 +6.4 87 +6 +6 1028.9 961.4
22 22.06 С 2
{4}
18 км н/о +8.3 +6.6 89 +6 +6 1029.0 961.5
23 22.06 СЗ 2
{4}
12 км н/о +8.0 +6.6 91 +6 +6 1029.0 961.4
00 23.06
{6}
13 км {дождь, морось} н/о +7.6 +6.3 91 1028.7 961.0
01 23.06
{5}
13 км н/о +7.4 +6.2 92 1028.7 961.0

 

Местоположение метеостанции Elsenborn (Бельгия): широта 50.47 долгота 6.18 высота над уровнем моря 570 м.

В архиве по умолчанию представлена погода в Elsenborn за последнюю неделю. Архивные данные за месяц целиком и за предыдущие месяцы, начиная с января 2011 года, Вы можете получить, выбрав интересующий диапазон дат из раскрывающегося списка и нажав кнопку "Ввод!".


*Определитесь, кто Вы:
робот инопланетянин человек

Внимание! Время в таблицах - всемирное. Для получения местного времени необходимо прибавить поправку, которая в Elsenborn равна 1 ч.

Смотрите также архив погоды в соседних городах и на ближайших метеорологических станциях:

Погода в Mont-Rigi (Бельгия) (10 км)
Погода в Spa (Бельгия) (18 км)
Погода в Aachen-Orsbach (Германия) (37 км)
Погода в Nuerburg-Barweiler (Германия) (50 км)
Погода в Noervenich (Германия) (53 км)
Погода в Bierset (Бельгия) (55 км)
Погода в Geilenkirchen (Германия) (56 км)
Погода в Maastricht (Нидерланды) (57 км)
Погода в Buechel (Германия) (71 км)
Погода в Diepenbeek (Бельгия) (72 км)

Пояснения к столбцам:

Ветер - указаны скорость ветра в м/с - средняя за 10 мин, порывы в срок и между сроками (в фигурных скобках) и направление, откуда дует ветер: С - северный, СВ - северо-восточный, В - восточный, ЮВ - юго-восточный, Ю - южный, ЮЗ - юго-западный, З - западный, СЗ - северо-западный.
Видимость - горизонтальная дальность видимости в метрах или километрах. При видимости от 1 до 10 км при отсутствии осадков обычно наблюдается дымка, при ухудшении видимости до 1 км и менее - туман. В сухую погоду видимость может ухудшаться дымом, пылью или мглою.
Явления - указаны атмосферные явления, наблюдавшиеся в срок или в последний час перед сроком; фигурными скобками обозначены явления, наблюдавшиеся между сроками (за 1-3 часа до срока); квадратными скобками обозначены град или гололедные отложения с указанием их диаметра в мм.
Облачность - указаны через наклонную черту общая и нижняя облачность в баллах и высота нижней границы облаков в метрах; квадратными скобками обозначены формы облаков: Ci - перистые, Cs - перисто-слоистые, Cc - перисто-кучевые, Ac - высококучевые, As - высокослоистые, Sc - слоисто-кучевые, Ns - слоисто-дождевые, Cu - кучевые, Cb - кучево-дождевые. Подробнее классификацию облаков см. в Атласе облаков (PDF).
T - Температура воздуха - температура, измеренная на высоте 2 м над землей.
Td - Температура точки росы - температура, при понижении до которой содержащийся в воздухе водяной пар достигнет насыщения.
f - Относительная влажность воздуха - влажноcть воздуха, измеренная на высоте 2 м над землей.
Te - Эффективная температура - температура, которую ощущает одетый по сезону человек в тени. Характеристика душности погоды. При расчете учитывается влияние влажности воздуха и скорости ветра на теплоощущения человека.
Tes - Эффективная температура на солнце - температура, которую ощущает человек, с поправкой на солнечный нагрев. Характеристика знойности погоды. Зависит от высоты солнца над горизонтом, облачности и скорости ветра. Ночью, в пасмурную погоду, а также при ветре 12 м/с и более поправка равна нулю.
P - Атмосферное давление - приведенное к уровню моря атмосферное давление.
Po - Атмосферное давление - измеренное на уровне метеостанции атмосферное давление.
Tmin - Минимальная температура - минимум температуры воздуха на высоте 2 м над землей.
Tmax - Максимальная температура - максимум температуры воздуха на высоте 2 м над землей.
R - Количество осадков - Количество выпавших осадков за период времени, мм. При наведении курсора мыши на число - период времени, за который выпало указанное количество осадков.
R24 - Количество осадков - Количество выпавших осадков за 24 часа, мм.
S - Снежный покров - Высота снежного покрова, см. При наведении курсора мыши на число - состояние снежного покрова и степень покрытия местности в баллах.